TimeCDT,TemperatureF,Dew PointF,Humidity,Sea Level PressureIn,VisibilityMPH,Wind Direction,Wind SpeedMPH,Gust SpeedMPH,PrecipitationIn,Events,Conditions,WindDirDegrees,DateUTC
9:15 AM,62.6,35.6,37,30.12,10.0,NW,8.1,-,N/A,,Clear,310,2013-06-15 14:15:00
9:35 AM,62.6,33.8,34,30.12,10.0,WNW,9.2,-,N/A,,Clear,300,2013-06-15 14:35:00
9:55 AM,62.6,35.6,37,30.12,10.0,NNW,10.4,-,N/A,,Clear,330,2013-06-15 14:55:00
10:15 AM,62.6,35.6,37,30.12,10.0,NNW,8.1,-,N/A,,Clear,330,2013-06-15 15:15:00
10:35 AM,64.4,35.6,34,30.11,10.0,NNW,5.8,-,N/A,,Clear,330,2013-06-15 15:35:00
10:55 AM,64.4,37.4,37,30.11,10.0,North,4.6,-,N/A,,Clear,350,2013-06-15 15:55:00
11:15 AM,64.4,39.2,40,30.11,10.0,NNW,9.2,-,N/A,,Clear,330,2013-06-15 16:15:00
11:35 AM,64.4,39.2,40,30.10,10.0,NW,10.4,-,N/A,,Clear,320,2013-06-15 16:35:00
11:55 AM,64.4,39.2,40,30.10,10.0,North,11.5,17.3,N/A,,Clear,350,2013-06-15 16:55:00
12:15 PM,66.2,39.2,37,30.09,10.0,NNW,10.4,-,N/A,,Clear,340,2013-06-15 17:15:00
12:35 PM,66.2,41.0,40,30.09,10.0,NW,8.1,-,N/A,,Clear,320,2013-06-15 17:35:00
12:55 PM,66.2,41.0,40,30.09,10.0,North,8.1,-,N/A,,Clear,350,2013-06-15 17:55:00
1:15 PM,68.0,42.8,40,30.09,10.0,NW,4.6,-,N/A,,Clear,320,2013-06-15 18:15:00
1:35 PM,68.0,41.0,37,30.09,10.0,NE,3.5,-,N/A,,Clear,40,2013-06-15 18:35:00
1:55 PM,69.8,44.6,40,30.08,10.0,Calm,Calm,-,N/A,,Clear,0,2013-06-15 18:55:00
2:15 PM,71.6,44.6,38,30.08,10.0,East,4.6,-,N/A,,Clear,100,2013-06-15 19:15:00
2:35 PM,71.6,42.8,35,30.07,10.0,ESE,3.5,-,N/A,,Clear,120,2013-06-15 19:35:00
2:55 PM,69.8,46.4,43,30.07,10.0,SE,9.2,-,N/A,,Clear,130,2013-06-15 19:55:00
3:15 PM,71.6,44.6,38,30.06,10.0,ESE,6.9,-,N/A,,Clear,120,2013-06-15 20:15:00
3:35 PM,71.6,48.2,43,30.06,10.0,NE,6.9,-,N/A,,Clear,40,2013-06-15 20:35:00
3:55 PM,71.6,46.4,41,30.05,10.0,East,6.9,-,N/A,,Clear,100,2013-06-15 20:55:00
4:15 PM,71.6,44.6,38,30.05,10.0,ENE,6.9,-,N/A,,Clear,60,2013-06-15 21:15:00
4:35 PM,71.6,46.4,41,30.05,10.0,ENE,4.6,-,N/A,,Clear,60,2013-06-15 21:35:00
4:55 PM,73.4,44.6,36,30.04,10.0,SE,3.5,-,N/A,,Clear,140,2013-06-15 21:55:00
5:15 PM,71.6,46.4,41,30.04,10.0,ESE,4.6,-,N/A,,Clear,110,2013-06-15 22:15:00
5:35 PM,71.6,48.2,43,30.04,10.0,East,10.4,-,N/A,,Clear,100,2013-06-15 22:35:00
5:55 PM,71.6,48.2,43,30.04,10.0,ESE,8.1,-,N/A,,Clear,110,2013-06-15 22:55:00
6:15 PM,71.6,46.4,41,30.04,10.0,ESE,5.8,-,N/A,,Clear,110,2013-06-15 23:15:00
6:35 PM,71.6,48.2,43,30.03,10.0,ESE,9.2,-,N/A,,Clear,120,2013-06-15 23:35:00
6:55 PM,71.6,48.2,43,30.03,10.0,East,8.1,-,N/A,,Clear,100,2013-06-15 23:55:00
7:15 PM,69.8,50.0,49,30.03,10.0,East,8.1,-,N/A,,Clear,90,2013-06-16 00:15:00
7:35 PM,68.0,50.0,52,30.03,10.0,East,8.1,-,N/A,,Clear,90,2013-06-16 00:35:00
7:55 PM,68.0,50.0,52,30.03,10.0,East,9.2,-,N/A,,Clear,100,2013-06-16 00:55:00
8:15 PM,66.2,50.0,56,30.03,10.0,ESE,6.9,-,N/A,,Clear,110,2013-06-16 01:15:00
8:35 PM,64.4,53.6,68,30.03,10.0,ESE,6.9,-,N/A,,Clear,110,2013-06-16 01:35:00
8:55 PM,62.6,50.0,63,30.03,0.5,ESE,11.5,-,N/A,,Haze,120,2013-06-16 01:55:00
9:15 PM,60.8,48.2,63,30.03,0.5,ESE,8.1,-,N/A,,Haze,110,2013-06-16 02:15:00
9:35 PM,59.0,48.2,67,30.04,10.0,SE,6.9,-,N/A,,Clear,140,2013-06-16 02:35:00
9:55 PM,59.0,46.4,63,30.04,10.0,SE,5.8,-,N/A,,Clear,140,2013-06-16 02:55:00
10:15 PM,57.2,48.2,72,30.04,10.0,Calm,Calm,-,N/A,,Clear,0,2013-06-16 03:15:00
10:35 PM,59.0,46.4,63,30.05,10.0,Calm,Calm,-,N/A,,Clear,0,2013-06-16 03:35:00
10:55 PM,57.2,48.2,72,30.05,10.0,ESE,6.9,-,N/A,,Clear,120,2013-06-16 03:55:00
11:15 PM,59.0,46.4,63,30.05,10.0,Calm,Calm,-,N/A,,Clear,0,2013-06-16 04:15:00
11:35 PM,57.2,46.4,67,30.05,10.0,ESE,4.6,-,N/A,,Clear,120,2013-06-16 04:35:00
11:55 PM,59.0,46.4,63,30.05,10.0,North,3.5,-,N/A,,Clear,10,2013-06-16 04:55:00